Starlink 11465

operational
NORAD ID: 62057 Int'l Des: 2024-217 Owner: SPXS Country: US Constellation: starlink
LEOCIRCULAR

Starlink 11465について

説明を読み込み中...

リアルタイム位置

3D地球を読み込み中...

次回通過

高度履歴

Altitude vs Time

uPlot chart will show altitude changes over time

軌道要素

1 62057U 24217A 25258.58179138 .00284238 00000-0 22646-2 0 9999
2 62057 53.1537 214.2712 0001425 82.4803 277.6377 15.69783519 47679
Epoch: Sep 15, 2025 • Age: 11 hours

現在のステータス

高度 360.6 km
速度 7.69 km/s
衛星直下点 -5.66°S, 156.8°W
打ち上げ日 Nov 24, 2024
運用期間 0.8 years
タイプ internet

技術仕様

分類 Payload
質量 960.00 kg
乾燥質量 910.00 kg
総質量 960.00 kg
長さ 0.30 m
直径 4.10 m
スパン 29.00 m
形状 Box + pan
製造者 SPXS
バスタイプ Starlink V2MD
フェーズステータス In Orbit
所有者/国 SPXS/US

大規模コンステレーション

Loading constellations...